Weather Roundup
Issued by NWS Chicago, IL

Home | Current Version | Previous Version | Graphics & Text | Print | Product List | Glossary On
Versions: 1 2 3 4 5 6 7 8 9 10 11 12 13 14 15 16 17 18 19 20 21 22 23 24 25 26 27 28 29 30 31 32 33 34 35 36 37 38 39 40 41 42 43 44 45 46 47 48 49 50
000
NZUS59 KLOT 260506
HRRLOT

CHICAGO AREA WEATHER ROUNDUP
NATIONAL WEATHER SERVICE CHICAGO/ROMEOVILLE IL
1200 AM CDT SAT JUL 26 2014

NOTE: "FAIR" INDICATES FEW OR NO CLOUDS BELOW 12,000 FEET WITH NO
SIGNIFICANT WEATHER AND/OR OBSTRUCTIONS TO VISIBILITY.

* THESE STATIONS ARE NOT UNDER NWS QUALITY CONTROL. THEY ALSO MAY NOT
  REPORT WEATHER SUCH AS PRECIPITATION OR FOG.

ILZ005-006-012>014-019>023-260600-
NORTHEAST ILLINOIS

CITY           SKY/WX    TMP DP  RH WIND       PRES   REMARKS
OHARE          MOCLDY    70  57  63 SW8       29.92S
MIDWAY         CLOUDY    72  60  66 SW9       29.92F
AURORA         CLOUDY    68  59  73 S6        29.93S
LANSING*       CLOUDY    67  59  74 S6        29.94S
JOLIET*        CLOUDY    69  58  68 S9        29.94S
WAUKEGAN       CLOUDY    67  59  75 SW6       29.91S
DUPAGE AIRPORT CLOUDY    69  60  73 S9        29.92S
WHEELING       MOCLDY    71  59  65 SW7       29.93S
KANKAKEE*      CLOUDY    68  61  77 S7        29.95S
MORRIS*        CLOUDY    68  61  76 S5        29.93S
LEWIS AIRPORT* CLOUDY    69  58  69 SW10      29.93S
NORTHERLY IS     N/A     70  58  65 S7          N/A
$$

WIZ051-052-058>065-066-070>072-260600-
SOUTHEAST WISCONSIN

CITY           SKY/WX    TMP DP  RH WIND       PRES   REMARKS
MILWAUKEE      PTCLDY    66  59  78 S6        29.90F
KENOSHA*       MOCLDY    65  60  84 S5        29.92S
RACINE*        PTCLDY    64  59  83 S5        29.92F
BURLINGTON     PTCLDY    62  59  90 SW5       29.91S
WAUKESHA       CLEAR     63  59  88 CALM      29.92R
WEST BEND      CLEAR     64  57  77 S5        29.90S
$$

INZ001>003-010>013-019-020-260600-
NORTHWEST INDIANA

CITY           SKY/WX    TMP DP  RH WIND       PRES   REMARKS
GARY*          MOCLDY    70  59  67 CALM      29.93F
MICHIGAN CITY* NOT AVBL
RENSSELAER*    NOT AVBL
VALPARAISO     CLOUDY    65  59  81 S5        29.95S
$$

LMZ740>746-260600-
SOUTHERN LAKE MICHIGAN

STATION/POSITION TIME  SKY/WX   TEMP WIND        PRES    VSBY
                                AIR  DIR/SP/G
                 (UTC)          (F)  (DEG/KT/KT) (MB)    (MI)
HARRISON CRIB    0500            69  190/ 14/ 16   N/A
BURNHAM HARBOR   0500            70  190/  7/  9   N/A
CALUMET HARBOR   0500            70  180/  6/  9 1012.2F
BURNS HARBOR     NOT AVBL
MICHIGAN CITY    0500            66  110/  4/  6   N/A
$$

ABBREVIATIONS USED IN REMARKS
   TC - TEMPERATURE IN CELSIUS
  WCI - WIND CHILL INDEX
   HX - HEAT INDEX
  VSB - VISIBILITY
$$


USA.gov is the U.S. government's official web portal to all federal, state and local government web resources and services.